This is the latest recevied weather packets stored in our database for station/object AI9F. If no packets are shown the sender has not sent any weather packets the latest 10 day(s).
| Time | Temp. | Humidity | Pressure | Rain* | Wind** | Luminosity | Snow |
|---|---|---|---|---|---|---|---|
| 1777653664 | 14.44° C | 49% | 1017.9 hPa | 0 mm | - | 842 W/m² | - |
| 1777653361 | 14.44° C | 51% | 1017.7 hPa | 0 mm | - | 159 W/m² | - |
| 1777653058 | 14.44° C | 56% | 1017.9 hPa | 0 mm | - | 144 W/m² | - |
| 1777652754 | 14.44° C | 50% | 1017.9 hPa | 0 mm | - | 759 W/m² | - |
| 1777652451 | 13.33° C | 51% | 1017.9 hPa | 0 mm | - | 777 W/m² | - |
| 1777652149 | 13.33° C | 54% | 1017.9 hPa | 0 mm | - | 723 W/m² | - |
| 1777651845 | 13.89° C | 53% | 1018.1 hPa | 0 mm | - | 612 W/m² | - |
| 1777651542 | 13.89° C | 54% | 1017.9 hPa | 0 mm | - | 210 W/m² | - |
| 1777651239 | 13.89° C | 55% | 1018.2 hPa | 0 mm | - | 164 W/m² | - |
| 1777650935 | 13.89° C | 53% | 1018.1 hPa | 0 mm | - | 274 W/m² | - |
| 1777650633 | 13.33° C | 56% | 1018 hPa | 0 mm | - | 159 W/m² | - |
| 1777650330 | 13.33° C | 53% | 1017.9 hPa | 0 mm | - | 117 W/m² | - |
| 1777650027 | 13.33° C | 60% | 1018.1 hPa | 0 mm | - | 168 W/m² | - |
| 1777649725 | 13.33° C | 54% | 1018.1 hPa | 1.78 mm | - | 103 W/m² | - |
| 1777649420 | 13.33° C | 57% | 1017.8 hPa | 1.78 mm | - | 107 W/m² | - |
| 1777649118 | 13.33° C | 56% | 1017.9 hPa | 0 mm | - | 87 W/m² | - |
| 1777648815 | 13.33° C | 56% | 1017.6 hPa | 0 mm | - | 82 W/m² | - |
| 1777648512 | 12.78° C | 57% | 1017.7 hPa | 0 mm | - | 118 W/m² | - |
| 1777648209 | 12.78° C | 59% | 1017.7 hPa | 0 mm | - | 74 W/m² | - |
| 1777647903 | 12.78° C | 59% | 1017.5 hPa | 0 mm | - | 90 W/m² | - |
| 1777647601 | 12.78° C | 61% | 1017.3 hPa | 0 mm | - | 85 W/m² | - |
| 1777647297 | 12.22° C | 61% | 1017.4 hPa | 0 mm | - | 77 W/m² | - |
| 1777646995 | 12.22° C | 60% | 1017.3 hPa | 0 mm | - | 74 W/m² | - |
| 1777646690 | 12.22° C | 59% | 1017.4 hPa | 0 mm | - | 63 W/m² | - |
| 1777646386 | 12.22° C | 61% | 1017.4 hPa | 0 mm | - | 97 W/m² | - |
* Rain latest hour (hover to see other rain measurements)
** Current wind speed in m/s (hover to see current wind gust speed)